Notices

What's New in latest Release from April 7th, 2021:

- Updated Glossary, including Speed of Maximum Gust, and Total Hourly Precipitation

- Updated national and regional climate services offices contacts and prices information

- Addition of station inventory lists for 1981-2010, 1971-2000, and 1961-1990 Normals.

If you haven't already, please take our survey and provide feedback about our website: https://eccc.sondage-survey.ca/f/LanguageSelection.aspx?s=442ca660-fcf1-47c0-95a9-59707d6fd709

Hourly Data Report for May 12, 2021

TORONTO CITY
ONTARIO
Current Station Operator: ECCC - MSC

43°40'00.000" N
79°24'00.000" W
112.50 m
6158355
71508
XTO

Download Data

Hourly Data (May 2021)
Hourly Data Report for May 12, 2021
TIME
LST
Temp Definition
°C
Dew Point Definition
°C
Rel Hum Definition
%
Precip. Amount Definition
mm

Wind Dir Definition
10's deg

Wind Spd Definition
km/h
Visibility Definition
km
Stn Press Definition
kPa
Hmdx Definition


Wind Chill Definition


Weather Definition


00:00 7.1 1.9 69 0.0       100.94     LegendNANA
01:00 6.4 2.0 73 0.0       100.89     LegendNANA
02:00 6.7 1.9 72 0.0       100.89     LegendNANA
03:00 7.1 1.6 68 0.0       100.91     LegendNANA
04:00 7.2 1.4 67 0.0       100.96     LegendNANA
05:00 7.1 1.3 67 0.0       101.03     LegendNANA
06:00 7.5 1.5 66 0.0       101.10     LegendNANA
07:00 9.4 1.4 57 0.0       101.17     LegendNANA
08:00 11.4 0.4 47 0.0       101.25     LegendNANA
09:00 12.9 -1.7 36 0.0       101.29     LegendNANA
10:00 14.8 -1.4 33 0.0       101.29     LegendNANA
11:00 15.1 -2.9 29 0.0       101.27     LegendNANA
12:00 16.0 -2.8 27 0.0       101.23     LegendNANA
13:00 16.9 -5.9 20 0.0       101.21     LegendNANA
14:00 17.1 -4.9 22 0.0       101.17     LegendNANA
15:00 17.6 -3.7 23 0.0       101.14     LegendNANA
16:00 17.1 -7.3 18 0.0       101.10     LegendNANA
17:00 16.4 -6.1 21 0.0       101.12     LegendNANA
18:00 16.1 -3.3 26 0.0       101.12     LegendNANA
19:00 15.5 -3.5 27 0.0       101.13     LegendNANA
20:00 14.5 -2.7 30 0.0       101.18     LegendNANA
21:00 13.5 -2.0 34 0.0       101.20     LegendNANA
22:00 12.5 -1.3 38 0.0       101.24     LegendNANA
23:00 11.7 -1.7 39 0.0       101.22     LegendNANA

Notes on Data Quality.

Legend

  • E = Estimated
  • M = Missing
  • NA = Not Available*
  • [empty] = Indicates an unobserved value
Date modified: